TimeMST,TemperatureF,Dew PointF,Humidity,Sea Level PressureIn,VisibilityMPH,Wind Direction,Wind SpeedMPH,Gust SpeedMPH,PrecipitationIn,Events,Conditions,WindDirDegrees,DateUTC
12:51 AM,84.0,18.0,9,29.78,10.0,Calm,Calm,-,N/A,,Clear,0,2013-05-25 07:51:00
1:51 AM,80.1,23.0,12,29.78,10.0,SSE,6.9,-,N/A,,Clear,160,2013-05-25 08:51:00
2:51 AM,77.0,27.0,16,29.78,10.0,ESE,4.6,-,N/A,,Clear,110,2013-05-25 09:51:00
3:51 AM,77.0,25.0,15,29.79,10.0,Calm,Calm,-,N/A,,Clear,0,2013-05-25 10:51:00
4:51 AM,75.9,24.1,15,29.81,10.0,North,5.8,-,N/A,,Partly Cloudy,10,2013-05-25 11:51:00
5:51 AM,73.0,30.9,21,29.83,10.0,Calm,Calm,-,N/A,,Partly Cloudy,0,2013-05-25 12:51:00
6:51 AM,73.9,30.0,20,29.85,10.0,East,4.6,-,N/A,,Mostly Cloudy,80,2013-05-25 13:51:00
7:51 AM,77.0,30.0,18,29.86,10.0,East,5.8,-,N/A,,Mostly Cloudy,100,2013-05-25 14:51:00
8:51 AM,82.0,24.1,12,29.86,10.0,Calm,Calm,-,N/A,,Mostly Cloudy,0,2013-05-25 15:51:00
9:51 AM,86.0,24.1,10,29.86,10.0,Calm,Calm,-,N/A,,Mostly Cloudy,0,2013-05-25 16:51:00
10:51 AM,88.0,23.0,9,29.86,10.0,Calm,Calm,-,N/A,,Mostly Cloudy,0,2013-05-25 17:51:00
11:51 AM,93.0,23.0,8,29.85,10.0,South,9.2,-,N/A,,Mostly Cloudy,180,2013-05-25 18:51:00
12:51 PM,96.1,21.0,7,29.83,10.0,South,10.4,16.1,N/A,,Scattered Clouds,180,2013-05-25 19:51:00
1:51 PM,95.0,21.9,7,29.81,10.0,SSW,6.9,-,N/A,,Scattered Clouds,200,2013-05-25 20:51:00
2:51 PM,96.1,19.9,6,29.78,10.0,NNW,4.6,-,N/A,,Scattered Clouds,340,2013-05-25 21:51:00
3:51 PM,96.1,21.0,7,29.76,10.0,WNW,4.6,-,N/A,,Scattered Clouds,300,2013-05-25 22:51:00
4:51 PM,97.0,21.9,7,29.75,10.0,Calm,Calm,-,N/A,,Scattered Clouds,0,2013-05-25 23:51:00
5:51 PM,97.0,21.0,6,29.73,10.0,Variable,3.5,-,N/A,,Scattered Clouds,0,2013-05-26 00:51:00
6:51 PM,96.1,19.9,6,29.73,10.0,WNW,8.1,-,N/A,,Scattered Clouds,290,2013-05-26 01:51:00
7:51 PM,93.9,16.0,6,29.75,10.0,West,12.7,-,N/A,,Partly Cloudy,270,2013-05-26 02:51:00
8:51 PM,91.0,15.1,6,29.76,10.0,West,13.8,-,N/A,,Partly Cloudy,270,2013-05-26 03:51:00
9:51 PM,89.1,14.0,6,29.79,10.0,West,9.2,-,N/A,,Clear,280,2013-05-26 04:51:00
10:51 PM,88.0,15.1,7,29.79,10.0,WNW,9.2,-,N/A,,Partly Cloudy,290,2013-05-26 05:51:00
11:51 PM,86.0,17.1,8,29.79,10.0,WNW,12.7,-,N/A,,Partly Cloudy,290,2013-05-26 06:51:00